Regional Weather Roundup
Issued by NWS

Home | Current Version | Previous Version | Graphics & Text | Print | Product List | Glossary Off
Versions: 1 2 3 4 5 6 7 8 9 10 11 12 13 14 15 16 17 18 19 20 21 22 23 24 25 26 27 28

000
ASUS45 KTFX 230910
RWRMT
MONTANA REGIONAL WEATHER ROUNDUP
NATIONAL WEATHER SERVICE GREAT FALLS MT
300 AM MDT SAT JUL 23 2016

NOTE: "FAIR" INDICATES FEW OR NO CLOUDS BELOW 12000 FEET WITH NO
SIGNIFICANT WEATHER AND/OR OBSTRUCTIONS TO VISIBILITY.

MTZ001>007-043-231000-
WEST OF THE DIVIDE

CITY           SKY/WX    TMP DP  RH WIND       PRES   REMARKS
KALISPELL      CLOUDY    57  50  77 SE6       30.12S
MISSOULA       PTCLDY    61  45  55 NE3       30.16R
BUTTE          CLEAR     57  40  52 W9        30.21S
MULLAN PASS    CLEAR     45  43  93 NW6       30.25S
ANACONDA         N/A     59  39  47 SW9       30.19S
DEER LODGE       N/A     55  39  54 NW3       30.20S
EUREKA           N/A     57  46  67 SE5       30.11S
HAMILTON         N/A     59  41  51 CALM      30.18F
LIBBY            N/A     48  46  93 CALM      30.14F
PLAINS           N/A     54  50  86 CALM      30.16R
RONAN            N/A     55  48  77 CALM      30.19S
$$

MTZ008-052>055-231000-
SOUTHWEST MONTANA

CITY           SKY/WX    TMP DP  RH WIND       PRES   REMARKS
BOZEMAN        CLEAR     61  44  53 W5        30.15R
DILLON         CLEAR     56  42  59 S6        30.17R
W YELLOWSTONE  CLEAR     46  23  39 CALM      30.23R
ENNIS          CLEAR     52  39  62 CALM      30.22S
THREE FORKS      N/A     56  22  26 CALM      30.12R
TWIN BRIDGES     N/A     65  39  38 NW7       30.14R
$$

MTZ009-010-012-014-046-048-049-054-231000-
EAST SLOPES AND CENTRAL MONTANA

CITY           SKY/WX    TMP DP  RH WIND       PRES   REMARKS
CUT BANK       MOCLDY    57  41  55 W15       29.98S
GREAT FALLS    PTCLDY    58  38  47 SW16      30.03F
MALMSTROM AFB  PTCLDY    56  42  59 SW7       30.03S
HELENA         CLEAR     64  38  38 W9G18     30.12S
CHOTEAU          N/A     61  39  44 W7        30.04F
CONRAD           N/A     51  45  80 SW3       30.02F
$$

MTZ011-013-016-021-045-047-050-051-231000-
NORTH CENTRAL MONTANA

CITY           SKY/WX    TMP DP  RH WIND       PRES   REMARKS
HAVRE            N/A    N/A N/A N/A MISG      29.89F
LEWISTOWN      CLEAR     56  48  74 W9        30.04R
N BAR RANCH    MOCLDY    59  45  58 VRB3      30.03S
CHINOOK          N/A     57  52  82 CALM      29.88F
$$

MTZ017>020-022>027-061-062-231000-
NORTHEAST MONTANA

CITY           SKY/WX    TMP DP  RH WIND       PRES   REMARKS
GLASGOW        PTCLDY    66  58  75 W13       29.83R
JORDAN           N/A     61  55  81 NW9       29.90S
SIDNEY         LGT RAIN  68  64  87 S8        29.86S
WOLF POINT     MOCLDY    73  63  70 S16       29.81F
PLENTYWOOD       N/A     70  64  83 S5        29.86R
POPLAR           N/A     70  64  83 SE14      29.82F
SCOBEY           N/A     70  62  75 SE7       29.79F
$$

MTZ028>42-056>058-231000-
SOUTHCENTRAL AND SOUTHEAST MONTANA

CITY           SKY/WX    TMP DP  RH WIND       PRES   REMARKS
BAKER          CLOUDY    67  61  81 SE25G37   29.81F
BILLINGS       CLEAR     67  45  45 E5        30.02R
LIVINGSTON     CLEAR     63  40  42 NW7       30.11R
MILES CITY     CLEAR     72  62  71 N17       29.85R
EKALAKA          N/A     71  58  63 SE16      29.83F
FORSYTH          N/A     72  52  49 NW13G23   29.89R
LAUREL           N/A     61  42  49 W5        30.03R
ROUNDUP          N/A     64  44  48 MISG      29.92S
$$

REGIONAL REPORTS...DAKOTAS

CITY           SKY/WX    TMP DP  RH WIND       PRES   REMARKS
WILLISTON      RAIN      67  63  87 S14       29.87R
MINOT          RAIN      70  65  84 SW15G28   29.91R
DICKINSON      PTCLDY    62  59  90 NE9       29.86F
BEACH          MOCLDY    63  63 100 NE6       29.92R
CROSBY           N/A     68  63  83 S6        29.82R
WATFORD CITY     N/A    N/A N/A N/A MISG        N/A
BISMARCK       PTCLDY    69  64  84 N14       29.84F
GRAND FORKS    CLOUDY    73  61  65 SE8       29.92F
FARGO          CLOUDY    76  63  64 E15       29.90F
BUFFALO SD       N/A     66  59  78 E9        29.81F
RAPID CITY     CLOUDY    69  55  60 SE10      29.91F
$$

REGIONAL REPORTS...WYOMING/IDAHO/WASHINGTON

CITY           SKY/WX    TMP DP  RH WIND       PRES   REMARKS
GILLETTE       CLEAR     78  43  28 SW17      29.90F
SHERIDAN       CLEAR     71  43  36 NW33G40   30.00R
BUFFALO WY     CLEAR     69  44  40 N33G47    30.01R
CODY           CLEAR     68  37  32 N12G18    30.09R
YELLOWSTONE LA   N/A     43  26  51 CALM      30.30R
IDAHO FALLS    CLEAR     57  38  48 SW13      30.13R
SALMON         CLEAR     59  43  55 N5        30.16S
BOISE          CLEAR     65  43  44 W12       30.11S
SPOKANE        PTCLDY    56  50  80 S7        30.14S
$$

REGIONAL REPORTS...ALBERTA

CITY           SKY/WX    TMP DP  RH WIND       PRES   REMARKS
EDMONTON       MOCLDY    57  54  88 W5        29.89R
CALGARY        MOCLDY    55  50  82 N21G26    29.94R
LETHBRIDGE     MOCLDY    59  48  67 W24G31    29.87R
MEDICINE HAT   PTCLDY    59  50  72 SW10      29.83F
WATERTON GATE    N/A     55  43  62 SW21G31     N/A
CARDSTON         N/A     59  43  55 W15G22      N/A
MILK RIVER       N/A     59  43  55 W20G29      N/A
$$

REGIONAL REPORTS...SASKATCHEWAN

CITY           SKY/WX    TMP DP  RH WIND       PRES   REMARKS
SWIFT CURRENT  CLOUDY    61  59  94 W6        29.78F FOG
REGINA         MOCLDY    63  59  88 E21G26    29.78F
SASKATOON      MOCLDY    63  63 100 N6        29.80F
CYPRESS HILLS    N/A     55  39  54 W8          N/A
VAL MARIE        N/A     59  57  94 W10         N/A
ROCKGLEN         N/A     64  61  88 SW15G21     N/A
$$




USA.gov is the U.S. government's official web portal to all federal, state and local government web resources and services.